Location: Houhaj�rvi
(61.2667°N, 23.0167°E)
Time: 17:55:53
(UTC+00:00)

OPS 8737 - Pass Details

Date: 13 December 2019
Orbit: 373 x 1734 km, 63.2° (Epoch: 19 November)

Event Time Altitude Azimuth Distance (km) Brightness Sun altitude
Rises 14:57:22 0° 266° (W) 2,346 9.3 -10.7°
Reaches altitude 10° 14:59:28 10° 270° (W) 1,423 8.0 -10.9°
Maximum altitude 15:02:27 61° 352° (N) 435 4.2 -11.2°
Enters shadow 15:04:23 20° 70° (ENE) 978 5.5 -11.4°
